312P/NEAT (2020)

Japanese version
Home page
Updated on February 21, 2021

---------------------------------------------------------------------

* Profile

* Pictures

* Orbital Elements

Epoch 2020 Sept. 28.0 TT = JDT 2459120.5
T 2020 Sept. 24.98731 TT                                Rudenko
q   1.9832439            (2000.0)            P               Q
n   0.15271108     Peri.  207.52780     +0.97499110     +0.10553734
a   3.4664826      Node   144.66971     -0.08276413     +0.98917456
e   0.4278800      Incl.   19.76825     -0.20625823     +0.10195857
P   6.45
From 161 observations 2001 Aug. 18-2021 Jan. 7, mean residual 0".4.

* Magnitudes Graph

        m1 = 15.5 + 5 log d + 10.0 log r

---------------------------------------------------------------------

The orbital elements are published on M.P.E.C. 2021-B143.
The magnitudes graphs are made with Comet for Windows.

---------------------------------------------------------------------

Copyright(C) Seiichi Yoshida (comet@aerith.net). All rights reserved.